INTELSAT 904 (IS-904)

Last updated on Sat Jun 21 2025 00:02:42 GMT+0000 (Coordinated Universal Time)

1 27380U 02007A 25171.55158853 -.00000195 00000+0 00000+0 0 9999 2 27380 6.0126 73.5319 0002603 23.8198 342.0502 1.00309044 48141
UTC large
Height (km)
Speed (km/s)
/
Latitude / Longitude
Inclination (degrees)
Orbital Period (minutes)
Azimuth
Elevation
Range (km)
Doppler Factor

Next 0 passes for location: London (51.5072 / 0.1276)

Sorry there are no passes over London.